Regional Weather Roundup
Issued by NWS

Home | Current Version | Previous Version | Text Only | Print | Product List | Glossary On
Versions: 1 2 3 4 5 6 7 8 9 10 11 12 13 14 15 16 17 18 19 20 21 22 23 24 25 26 27 28
000
ASUS45 KCYS 200610
RWRWY

WYOMING REGIONAL WEATHER ROUNDUP
NATIONAL WEATHER SERVICE CHEYENNE WY
1200 AM MDT SUN APR 20 2014

NOTE:  "FAIR" INDICATES FEW OR NO CLOUDS BELOW 12,000 FEET
WITH NO SIGNIFICANT WEATHER AND/OR OBSTRUCTIONS TO VISIBILITY.

WYZ001-200700-
YELLOWSTONE NATIONAL PARK

CITY           SKY/WX    TMP DP  RH WIND       PRES   REMARKS
LK YELLOWSTONE   N/A     26  21  81 CALM      30.09S
6HR MIN TEMP:  26; 6HR MAX TEMP:  48;

W YELLOWSTONE  NOT AVBL

$$
WYZ002>013-054>058-071-098>099-200700-
NORTHERN WYOMING

CITY           SKY/WX    TMP DP  RH WIND       PRES   REMARKS
JACKSON        CLEAR     41  27  56 S3        30.06R
CODY           CLEAR     46  25  42 S13       29.93F
GREYBULL       CLEAR     50  27  40 E6        29.91S
6HR MIN TEMP:  48; 6HR MAX TEMP:  67;

WORLAND        CLEAR     43  30  60 S8        29.93R
6HR MIN TEMP:  43; 6HR MAX TEMP:  67;

SHERIDAN         N/A     43  36  75 S7          N/A
6HR MIN TEMP:  38; 6HR MAX TEMP:  64;

BUFFALO        PTCLDY    45  27  49 CALM      29.95S
6HR MIN TEMP:  40; 6HR MAX TEMP:  62;

GILLETTE       CLEAR     48  32  53 S18       29.94F
6HR MIN TEMP:  42; 6HR MAX TEMP:  62;

HULETT         FAIR      50  32  50 CALM      29.96
NEWCASTLE      FAIR      52  28  40 E17       29.97

$$
WYZ014>020-022>026-101>103-200700-
CENTRAL WYOMING

CITY           SKY/WX    TMP DP  RH WIND       PRES   REMARKS
BIG PINEY      CLEAR     33  21  61 N9        30.11R WCI  25
6HR MIN TEMP:  33; 6HR MAX TEMP:  60;

PINEDALE       CLEAR     32  27  80 NW8       30.12R WCI  25
DUBOIS         FAIR      36  21  55 W12       30.05S WCI  27
LANDER         CLEAR     46  25  43 SW5       29.99R
6HR MIN TEMP:  43; 6HR MAX TEMP:  64;

RIVERTON       CLEAR     46  17  31 SW8       30.00R
6HR MIN TEMP:  45; 6HR MAX TEMP:  66;

CASPER         CLEAR     45  34  65 SW6       29.97S
6HR MIN TEMP:  37; 6HR MAX TEMP:  68;

DOUGLAS        MOCLDY    47  39  74 E9        29.98R
6HR MIN TEMP:  46; 6HR MAX TEMP:  62;


$$
WYZ021-027>030-104>119-200700-
SOUTHERN WYOMING

CITY           SKY/WX    TMP DP  RH WIND       PRES   REMARKS
EVANSTON       CLEAR     44  29  55 SW8       30.12S
6HR MIN TEMP:  42; 6HR MAX TEMP:  59;

KEMMERER       CLEAR     41  30  65 W3        30.13S
FORT BRIDGER   FAIR      48  30  50 SW10      30.14S
ROCK SPRINGS   PTCLDY    48  31  51 SW10      30.10S
6HR MIN TEMP:  48; 6HR MAX TEMP:  64; 6HR PCP: TRACE;

DIXON          FAIR      37  33  86 CALM      30.15R
RAWLINS        PTCLDY    47  34  60 SW8       30.08S
6HR MIN TEMP:  45; 6HR MAX TEMP:  60;

SARATOGA       FAIR      41  32  70 S10       30.12R
LARAMIE        CLEAR     38  33  82 S12       30.10S WCI  30
6HR MIN TEMP:  38; 6HR MAX TEMP:  59; 6HR PCP: TRACE;

CHEYENNE       PTCLDY    49  40  71 SW17      30.07F
6HR MIN TEMP:  48; 6HR MAX TEMP:  60;

TORRINGTON     PTCLDY    52  39  61 SE9       29.99S
6HR MIN TEMP:  51; 6HR MAX TEMP:  66;

PINE BLUFFS    FAIR      41  36  81 S10       30.07S

$$



USA.gov is the U.S. government's official web portal to all federal, state and local government web resources and services.